Sde-Haifa Haifa, Israel

5:22 AM IDT on September 26, 2016 (GMT +0300)
Haifa

Weather History for LLHA - January, 2013

Change the Weather History Date:

Thursday, January 31, 2013

  Actual Average Record
Temperature  
Mean Temperature 52 °F -  
Max Temperature 55 °F - - ()
Min Temperature 50 °F - - ()
Degree Days  
Heating Degree Days 12    
Growing Degree Days 2 (Base 50)    
Moisture  
Dew Point 46 °F    
Average Humidity 81    
Maximum Humidity 88    
Minimum Humidity 76    
Precipitation  
Precipitation 0.00 in - - ()
Sea Level Pressure  
Sea Level Pressure 29.73 in    
Wind  
Wind Speed 10 mph ()    
Max Wind Speed 16 mph    
Max Gust Speed -    
Visibility 5.8 miles    
Events Fog , Rain    
T = Trace of Precipitation, MM = Missing Value Source: Averaged Metar Reports

Daily Weather History Graph

Daily Weather History Graph

Search for Another Location

Airport or City:

Trip Planner

Search our weather history database for the weather conditions in past years. The results will help you decide how hot, cold, wet, or windy it might be!

Date:

Astronomy

Jan. 31, 2013 Rise Set
Actual Time 6:35 AM IST 5:11 PM IST
Civil Twilight 6:09 AM IST 5:37 PM IST
Nautical Twilight 5:40 AM IST 6:06 PM IST
Astronomical Twilight 5:10 AM IST 6:36 PM IST
Moon 9:32 PM IST (1/31) 8:40 AM IST (1/31)
Length of Visible Light 11h 27m
Length of Day
10h 35m
Waning Gibbous, 82% of the Moon is Illuminated
Jan 31
Waning Gibbous
Feb 3
Last Quarter
Feb 10
New
Feb 17
First Quarter
Feb 25
Full

Hourly Weather History & Observations

Time (IST) Temp. Dew Point Humidity Pressure Visibility Wind Dir Wind Speed Gust Speed Precip Events Conditions
7:50 AM 50.0 °F 44.6 °F 82% 29.68 in 6.2 mi ESE 10.4 mph - N/A   Overcast
8:50 AM 51.8 °F 44.6 °F 76% 29.68 in 6.2 mi SSE 16.1 mph - N/A   Overcast
9:20 AM 50.0 °F 44.6 °F 82% 29.71 in 6.2 mi SE 16.1 mph - N/A Rain Rain
10:20 AM 50.0 °F 44.6 °F 82% 29.71 in 6.2 mi SE 15.0 mph - N/A Rain Light Rain
11:50 AM 50.0 °F 44.6 °F 82% 29.71 in 6.2 mi SE 12.7 mph - N/A Fog Overcast
12:20 PM 51.8 °F 46.4 °F 82% 29.71 in 6.2 mi SSE 10.4 mph - N/A Fog Scattered Clouds
12:50 PM 53.6 °F 46.4 °F 77% 29.71 in 6.2 mi SSE 13.8 mph - N/A Fog Overcast
1:20 PM 51.8 °F 46.4 °F 82% 29.71 in 3.7 mi South 13.8 mph - N/A Fog Fog
1:50 PM 51.8 °F 46.4 °F 82% 29.71 in 3.7 mi SSE 13.8 mph - N/A Fog , Rain Rain
2:20 PM 53.6 °F 48.2 °F 82% 29.71 in 4.3 mi SSE 12.7 mph - N/A   Mostly Cloudy
2:50 PM 55.4 °F 48.2 °F 77% 29.71 in 6.2 mi SSE 11.5 mph - N/A Fog Scattered Clouds
3:20 PM 53.6 °F 48.2 °F 82% 29.71 in 6.2 mi SE 8.1 mph - N/A Rain Light Rain
4:20 PM 51.8 °F 46.4 °F 82% 29.74 in 5.0 mi ESE 9.2 mph - N/A Rain Rain
4:50 PM 53.6 °F 46.4 °F 77% 29.74 in 6.2 mi SE 8.1 mph - N/A   Mostly Cloudy
5:20 PM 53.6 °F 46.4 °F 77% 29.74 in 6.2 mi South 5.8 mph - N/A Rain Light Rain
5:50 PM 51.8 °F 46.4 °F 82% 29.74 in 6.2 mi South 6.9 mph - N/A   Mostly Cloudy
6:20 PM 51.8 °F 46.4 °F 82% 29.77 in 6.2 mi SE 4.6 mph - N/A   Mostly Cloudy
6:50 PM 51.8 °F 46.4 °F 82% 29.77 in 6.2 mi SSE 9.2 mph - N/A   Scattered Clouds
7:20 PM 51.8 °F 46.4 °F 82% 29.80 in 6.2 mi SSE 9.2 mph - N/A   Mostly Cloudy
7:50 PM 51.8 °F 48.2 °F 88% 29.80 in 6.2 mi SE 6.9 mph - N/A   Mostly Cloudy